Regional Weather Roundup
Issued by NWS Bismarck, ND

Home | Current Version | Previous Version | Text Only | Print | Product List | Glossary On
Versions: 1 2 3 4 5 6 7 8 9 10 11 12 13 14 15 16 17 18 19 20 21 22 23 24 25 26 27 28 29 30 31 32 33 34 35 36 37 38 39 40 41 42 43 44 45 46 47 48 49 50
000
ASUS43 KBIS 061720
RWRBIS

NWR BROADCAST TEXT
NATIONAL WEATHER SERVICE BISMARCK ND
1200 PM CDT WED MAY 06 2015

NOTE: "FAIR" INDICATES FEW OR NO CLOUDS BELOW 12,000 FEET WITH NO
SIGNIFICANT WEATHER AND/OR OBSTRUCTIONS TO VISIBILITY.


CITY           SKY/WX    TMP DP  RH WIND       PRES   REMARKS
WILLISTON      RAIN      59  56  89 S7        29.71S FOG
MINOT          LGT RAIN  61  57  87 SE7       29.74F FOG
MINOT AFB      LGT RAIN  63  63 100 SE14      29.74S
BISMARCK       CLOUDY    60  59  96 SE15      29.73F FOG
DICKINSON      LGT RAIN  59  55  87 SE8       29.69F
GARRISON         N/A     60  32  34 SE9       29.73F
HETTINGER ARPT LGT RAIN  58  55  90 SE8       29.71F
JAMESTOWN      CLOUDY    59  58  96 SE16      29.80F
BEACH          LGT RAIN  55  55 100 S7        29.72F
CARRINGTON     CLOUDY    57  57 100 SE18G25   29.81F FOG
CROSBY         CLOUDY    64  55  72 S20G28    29.70S
HARVEY         CLOUDY    59  59 100 SE13      29.78F FOG
HAZEN          FAIR      59  57  94 SE9       29.73F FOG
LINTON         CLOUDY    63  63 100 SE18      29.73F
MANDAN         LGT RAIN  59  59 100 SE12      29.74F
OAKES            N/A     63  63 100 SE22      29.81F
STANLEY        FAIR      59  59 100 S15       29.75S FOG
TIOGA          PTSUNNY   57  57 100 S14       29.76S FOG
WATFORD CITY   CLOUDY    59  57  94 S8        29.70S
$$

CITY           SKY/WX    TMP DP  RH WIND       PRES   REMARKS
GRAND FORKS    LGT RAIN  59  58  96 S13G20    29.88F FOG
GRAND FORKS AF RAIN      59  57  94 S16       29.87F FOG
DEVILS LAKE    CLOUDY    57  54  88 SE13      29.82F
FARGO          CLOUDY    63  58  83 SE21G28   29.87F
CANDO          PTSUNNY   59  57  94 S17       29.83S FOG
CAVALIER       CLOUDY    63  55  77 S20       29.87R HAZE
GRAFTON        DRIZZLE   59  59 100 S18       29.88F
GWINNER        CLOUDY    61  61 100 SE23      29.85F
LANGDON        CLOUDY    59  57  94 S15G23    29.85F FOG
WALHALLA       CLOUDY    63  63 100 S16G22    29.86S
$$

CITY           SKY/WX    TMP DP  RH WIND       PRES   REMARKS
ABERDEEN       LGT RAIN  64  61  90 SE20G28   29.79F FOG
MOBRIDGE       CLOUDY    65  60  84 SE16      29.70F
BUFFALO          N/A     57  55  93 S9        29.64F
RAPID CITY     CLOUDY    58  55  90 CALM      29.68F
GLASGOW        LGT RAIN  51  42  71 NW23      29.79R
SIDNEY         CLOUDY    57  54  88 S9        29.71S
WOLF POINT     CLOUDY    61  47  59 N16       29.74R
GLENDIVE       CLOUDY    55  52  88 NW12      29.73R
MILES CITY     CLOUDY    54  44  69 NW20      29.76R
BAKER          LGT RAIN  57  32  38 SW5       29.72S
$$

CITY           SKY/WX    TMP DP  RH WIND       PRES   REMARKS
BILLINGS       CLOUDY    50  32  50 N10       29.88R
GREAT FALLS    MOSUNNY   49  33  54 N10       29.94S
REGINA         CLOUDY    59  46  63 NW22      29.70R
ESTEVAN        CLOUDY    64  54  68 S22       29.70S
$$



USA.gov is the U.S. government's official web portal to all federal, state and local government web resources and services.